• In Czech Republic
  • List of Countries
  • For 7 days
  • Water Temperature
  • Satellite Maps
  • Weather Map
  • Weather Widgets
  • user-avatar
    Login

    Hourly Weather Punta Gorda

    Today, 23 February, Friday

    Time Temperature Precipitation Wind Pressure Humidity
    00:00 +24°C° 1.1 mm 3 mps 763 mmHg 95%
    01:00 +24°C° 0.9 mm 3 mps 763 mmHg 95%
    02:00 +24°C° 0.9 mm 2 mps 763 mmHg 95%
    03:00 +24°C° 0.9 mm 2 mps 763 mmHg 95%
    04:00 +24°C° 0.2 mm 2 mps 763 mmHg 96%
    05:00 +24°C° 0.2 mm 2 mps 763 mmHg 97%
    06:00 +24°C° 0.2 mm 1 mps 763 mmHg 97%
    07:00 +25°C° 0.2 mm 1 mps 764 mmHg 92%
    08:00 +26°C° 0.2 mm 1 mps 764 mmHg 87%
    09:00 +28°C° 0.2 mm 1 mps 764 mmHg 82%
    10:00 +29°C° 0.2 mm 2 mps 764 mmHg 74%
    11:00 +30°C° 0.2 mm 2 mps 764 mmHg 66%
    12:00 +31°C° 0.2 mm 2 mps 764 mmHg 58%
    13:00 +31°C° 0.1 mm 3 mps 763 mmHg 57%
    14:00 +31°C° 0.1 mm 3 mps 762 mmHg 56%
    15:00 +32°C° 0.1 mm 4 mps 761 mmHg 55%
    16:00 +30°C° 0 mm 3 mps 761 mmHg 61%
    17:00 +29°C° 0 mm 3 mps 761 mmHg 67%
    18:00 +27°C° 0 mm 3 mps 761 mmHg 73%
    19:00 +26°C° 0.1 mm 3 mps 762 mmHg 79%
    20:00 +25°C° 0.1 mm 2 mps 762 mmHg 84%
    21:00 +25°C° 0.1 mm 2 mps 763 mmHg 89%
    22:00 +24°C° 0.5 mm 2 mps 763 mmHg 91%
    23:00 +24°C° 0.5 mm 2 mps 763 mmHg 93%

    Tomorrow, 24 February, Saturday

    Time Temperature Precipitation Wind Pressure Humidity
    00:00 +24°C° 0.5 mm 2 mps 762 mmHg 95%
    01:00 +24°C° 0.6 mm 1 mps 762 mmHg 96%
    02:00 +24°C° 0.6 mm 1 mps 762 mmHg 96%
    03:00 +24°C° 0.6 mm 1 mps 761 mmHg 97%
    04:00 +24°C° 0.1 mm 1 mps 761 mmHg 97%
    05:00 +24°C° 0.1 mm 1 mps 761 mmHg 98%
    06:00 +21°C° 0.1 mm 0 mps 761 mmHg 98%
    07:00 +25°C° 0 mm 1 mps 762 mmHg 90%
    08:00 +27°C° 0 mm 1 mps 762 mmHg 82%
    09:00 +28°C° 0 mm 1 mps 762 mmHg 74%
    10:00 +30°C° 0 mm 1 mps 762 mmHg 66%
    11:00 +31°C° 0 mm 2 mps 761 mmHg 57%
    12:00 +34°C° 0 mm 2 mps 761 mmHg 49%
    13:00 +34°C° 0 mm 3 mps 760 mmHg 47%
    14:00 +34°C° 0 mm 3 mps 759 mmHg 46%
    15:00 +34°C° 0 mm 3 mps 758 mmHg 44%
    16:00 +31°C° 0 mm 3 mps 758 mmHg 52%
    17:00 +29°C° 0 mm 3 mps 759 mmHg 60%
    18:00 +27°C° 0 mm 3 mps 759 mmHg 68%
    19:00 +26°C° 0 mm 3 mps 760 mmHg 74%
    20:00 +25°C° 0 mm 3 mps 760 mmHg 81%
    21:00 +24°C° 0 mm 3 mps 761 mmHg 88%
    22:00 +24°C° 0.2 mm 2 mps 761 mmHg 90%
    23:00 +24°C° 0.2 mm 2 mps 761 mmHg 92%

    Day after tomorrow, 25 February, Sunday

    Time Temperature Precipitation Wind Pressure Humidity
    00:00 +24°C° 0.2 mm 2 mps 761 mmHg 94%
    01:00 +24°C° 0.1 mm 2 mps 761 mmHg 95%
    02:00 +24°C° 0.1 mm 1 mps 760 mmHg 96%
    03:00 +24°C° 0.1 mm 1 mps 760 mmHg 96%
    04:00 +24°C° 0 mm 1 mps 760 mmHg 96%
    05:00 +24°C° 0 mm 1 mps 760 mmHg 97%
    06:00 +24°C° 0 mm 1 mps 761 mmHg 97%
    07:00 +26°C° 0 mm 1 mps 761 mmHg 89%
    08:00 +27°C° 0 mm 1 mps 761 mmHg 82%
    09:00 +29°C° 0 mm 1 mps 762 mmHg 75%
    10:00 +30°C° 0 mm 1 mps 761 mmHg 66%
    11:00 +32°C° 0 mm 1 mps 761 mmHg 57%
    12:00 +35°C° 0 mm 2 mps 760 mmHg 49%
    13:00 +35°C° 0 mm 2 mps 759 mmHg 48%
    14:00 +35°C° 0 mm 3 mps 759 mmHg 47%
    15:00 +35°C° 0 mm 4 mps 758 mmHg 45%
    16:00 +33°C° 0 mm 4 mps 758 mmHg 52%
    17:00 +30°C° 0 mm 3 mps 759 mmHg 59%
    18:00 +28°C° 0 mm 3 mps 759 mmHg 67%
    19:00 +27°C° 0 mm 3 mps 760 mmHg 74%
    20:00 +25°C° 0 mm 3 mps 761 mmHg 81%
    21:00 +24°C° 0 mm 3 mps 762 mmHg 89%
    22:00 +24°C° 0.1 mm 2 mps 761 mmHg 90%
    23:00 +24°C° 0.1 mm 2 mps 761 mmHg 92%

    26 February, Monday

    Time Temperature Precipitation Wind Pressure Humidity
    00:00 +24°C° 0.1 mm 2 mps 761 mmHg 94%
    01:00 +24°C° 0.1 mm 1 mps 761 mmHg 95%
    02:00 +24°C° 0.1 mm 1 mps 761 mmHg 95%
    03:00 +24°C° 0.1 mm 1 mps 761 mmHg 96%
    04:00 +24°C° 0.1 mm 1 mps 761 mmHg 96%
    05:00 +24°C° 0.1 mm 1 mps 762 mmHg 96%
    06:00 +24°C° 0.1 mm 1 mps 762 mmHg 97%
    07:00 +26°C° 0.1 mm 1 mps 762 mmHg 90%
    08:00 +27°C° 0.1 mm 1 mps 763 mmHg 84%
    09:00 +28°C° 0.1 mm 1 mps 763 mmHg 78%
    10:00 +30°C° 0 mm 1 mps 762 mmHg 68%
    11:00 +32°C° 0 mm 1 mps 762 mmHg 59%
    12:00 +34°C° 0 mm 2 mps 761 mmHg 49%
    13:00 +34°C° 0 mm 2 mps 761 mmHg 47%
    14:00 +34°C° 0 mm 3 mps 760 mmHg 46%
    15:00 +34°C° 0 mm 4 mps 759 mmHg 44%
    16:00 +33°C° 0 mm 4 mps 760 mmHg 52%
    17:00 +30°C° 0 mm 4 mps 760 mmHg 60%
    18:00 +28°C° 0 mm 4 mps 761 mmHg 68%
    19:00 +27°C° 0 mm 3 mps 761 mmHg 75%
    20:00 +26°C° 0 mm 3 mps 762 mmHg 82%
    21:00 +25°C° 0 mm 3 mps 763 mmHg 89%
    22:00 +25°C° 0.1 mm 3 mps 762 mmHg 91%
    23:00 +25°C° 0.1 mm 3 mps 762 mmHg 93%

    27 February, Tuesday

    Time Temperature Precipitation Wind Pressure Humidity
    00:00 +24°C° 0.1 mm 2 mps 762 mmHg 94%
    01:00 +24°C° 0.3 mm 2 mps 762 mmHg 95%
    02:00 +24°C° 0.3 mm 2 mps 762 mmHg 96%
    03:00 +24°C° 0.3 mm 2 mps 762 mmHg 96%
    04:00 +24°C° 0.4 mm 2 mps 762 mmHg 96%
    05:00 +24°C° 0.4 mm 2 mps 762 mmHg 97%
    06:00 +23°C° 0.4 mm 1 mps 762 mmHg 97%
    07:00 +25°C° 0.4 mm 1 mps 763 mmHg 92%
    08:00 +26°C° 0.4 mm 1 mps 763 mmHg 86%
    09:00 +27°C° 0.4 mm 1 mps 763 mmHg 81%
    10:00 +29°C° 0.2 mm 2 mps 763 mmHg 73%
    11:00 +30°C° 0.2 mm 2 mps 762 mmHg 65%
    12:00 +31°C° 0.2 mm 2 mps 762 mmHg 57%
    13:00 +33°C° 0 mm 3 mps 761 mmHg 55%
    14:00 +33°C° 0 mm 3 mps 760 mmHg 52%
    15:00 +33°C° 0 mm 3 mps 759 mmHg 50%
    16:00 +31°C° 0 mm 3 mps 760 mmHg 57%
    17:00 +29°C° 0 mm 3 mps 760 mmHg 64%
    18:00 +27°C° 0 mm 3 mps 760 mmHg 72%
    19:00 +26°C° 0 mm 3 mps 761 mmHg 78%
    20:00 +25°C° 0 mm 2 mps 761 mmHg 84%
    21:00 +24°C° 0 mm 2 mps 762 mmHg 90%
    22:00 +24°C° 0.1 mm 2 mps 762 mmHg 92%
    23:00 +24°C° 0.1 mm 2 mps 761 mmHg 94%

    28 February, Wednesday

    Time Temperature Precipitation Wind Pressure Humidity
    00:00 +23°C° 0.1 mm 2 mps 761 mmHg 95%
    01:00 +23°C° 0.1 mm 1 mps 761 mmHg 96%
    02:00 +23°C° 0.1 mm 1 mps 761 mmHg 97%
    03:00 +23°C° 0.1 mm 1 mps 760 mmHg 97%
    04:00 +23°C° 0.1 mm 1 mps 760 mmHg 97%
    05:00 +23°C° 0.1 mm 1 mps 761 mmHg 98%
    06:00 +23°C° 0.1 mm 1 mps 761 mmHg 98%
    07:00 +25°C° 0 mm 1 mps 761 mmHg 89%
    08:00 +27°C° 0 mm 1 mps 761 mmHg 81%
    09:00 +29°C° 0 mm 1 mps 761 mmHg 72%
    10:00 +30°C° 0 mm 1 mps 761 mmHg 64%
    11:00 +32°C° 0 mm 1 mps 760 mmHg 56%
    12:00 +34°C° 0 mm 2 mps 759 mmHg 47%
    13:00 +34°C° 0 mm 2 mps 758 mmHg 46%
    14:00 +34°C° 0 mm 3 mps 758 mmHg 44%
    15:00 +34°C° 0 mm 3 mps 757 mmHg 42%
    16:00 +31°C° 0 mm 3 mps 757 mmHg 51%
    17:00 +29°C° 0 mm 3 mps 757 mmHg 59%
    18:00 +27°C° 0 mm 3 mps 757 mmHg 67%
    19:00 +26°C° 0 mm 3 mps 758 mmHg 74%
    20:00 +25°C° 0 mm 3 mps 759 mmHg 82%
    21:00 +24°C° 0 mm 3 mps 759 mmHg 89%
    22:00 +24°C° 0.1 mm 2 mps 759 mmHg 91%
    23:00 +25°C° 0.1 mm 2 mps 759 mmHg 92%
    Show more